When you browse on this site, cookies collect data to enhance your experience and personalize the content and advertising you see.
Visit our Privacy Policy to learn more. By continuing to use the site, you agree to this use of cookies and data.
  • In Slovakia
  • List of Countries
  • For 7 days
  • Water Temperature
  • Weather Map
  • Weather Widgets
  • user-avatar
    Login

    Hourly Weather Sevan

    Today, 19 August, Monday

    Time Temperature Precipitation Wind Pressure Humidity
    00:00 +24°C° 0 mm 3 mps 643 mmHg 41%
    01:00 +22°C° 0 mm 3 mps 643 mmHg 42%
    02:00 +21°C° 0 mm 3 mps 643 mmHg 43%
    03:00 +21°C° 0 mm 2 mps 642 mmHg 47%
    04:00 +21°C° 0 mm 2 mps 643 mmHg 46%
    05:00 +21°C° 0 mm 2 mps 643 mmHg 45%
    06:00 +21°C° 0 mm 2 mps 643 mmHg 44%
    07:00 +24°C° 0 mm 2 mps 644 mmHg 39%
    08:00 +27°C° 0 mm 2 mps 645 mmHg 35%
    09:00 +29°C° 0 mm 2 mps 645 mmHg 30%
    10:00 +31°C° 0 mm 2 mps 646 mmHg 28%
    11:00 +32°C° 0 mm 2 mps 646 mmHg 25%
    12:00 +35°C° 0 mm 3 mps 646 mmHg 23%
    13:00 +35°C° 0 mm 3 mps 646 mmHg 23%
    14:00 +35°C° 0 mm 3 mps 646 mmHg 22%
    15:00 +36°C° 0 mm 3 mps 646 mmHg 22%
    16:00 +34°C° 0 mm 3 mps 646 mmHg 27%
    17:00 +32°C° 0 mm 4 mps 646 mmHg 32%
    18:00 +30°C° 0 mm 4 mps 646 mmHg 37%
    19:00 +28°C° 0 mm 4 mps 646 mmHg 40%
    20:00 +26°C° 0 mm 4 mps 646 mmHg 42%
    21:00 +23°C° 0 mm 5 mps 646 mmHg 45%
    22:00 +23°C° 0 mm 4 mps 645 mmHg 44%
    23:00 +22°C° 0 mm 4 mps 645 mmHg 42%

    Tomorrow, 20 August, Tuesday

    Time Temperature Precipitation Wind Pressure Humidity
    00:00 +21°C° 0 mm 4 mps 645 mmHg 41%
    01:00 +21°C° 0 mm 4 mps 645 mmHg 40%
    02:00 +20°C° 0 mm 3 mps 645 mmHg 40%
    03:00 +20°C° 0 mm 3 mps 645 mmHg 39%
    04:00 +20°C° 0 mm 3 mps 645 mmHg 39%
    05:00 +20°C° 0 mm 3 mps 645 mmHg 39%
    06:00 +20°C° 0 mm 2 mps 645 mmHg 39%
    07:00 +23°C° 0 mm 2 mps 646 mmHg 35%
    08:00 +26°C° 0 mm 2 mps 647 mmHg 30%
    09:00 +29°C° 0 mm 2 mps 647 mmHg 26%
    10:00 +30°C° 0 mm 2 mps 647 mmHg 24%
    11:00 +32°C° 0 mm 2 mps 648 mmHg 22%
    12:00 +34°C° 0 mm 2 mps 648 mmHg 19%
    13:00 +34°C° 0 mm 3 mps 647 mmHg 19%
    14:00 +35°C° 0 mm 3 mps 647 mmHg 19%
    15:00 +35°C° 0 mm 3 mps 647 mmHg 20%
    16:00 +34°C° 0 mm 4 mps 646 mmHg 24%
    17:00 +32°C° 0 mm 4 mps 646 mmHg 29%
    18:00 +29°C° 0 mm 4 mps 645 mmHg 34%
    19:00 +28°C° 0 mm 5 mps 645 mmHg 36%
    20:00 +26°C° 0 mm 5 mps 645 mmHg 38%
    21:00 +23°C° 0 mm 5 mps 645 mmHg 40%
    22:00 +22°C° 0 mm 4 mps 645 mmHg 39%
    23:00 +22°C° 0 mm 4 mps 645 mmHg 37%

    Day after tomorrow, 21 August, Wednesday

    Time Temperature Precipitation Wind Pressure Humidity
    00:00 +21°C° 0 mm 3 mps 644 mmHg 36%
    01:00 +20°C° 0 mm 3 mps 644 mmHg 36%
    02:00 +20°C° 0 mm 3 mps 644 mmHg 36%
    03:00 +19°C° 0 mm 3 mps 644 mmHg 36%
    04:00 +19°C° 0 mm 2 mps 644 mmHg 35%
    05:00 +19°C° 0 mm 2 mps 644 mmHg 35%
    06:00 +19°C° 0 mm 2 mps 644 mmHg 35%
    07:00 +23°C° 0 mm 2 mps 645 mmHg 31%
    08:00 +26°C° 0 mm 2 mps 646 mmHg 27%
    09:00 +28°C° 0 mm 2 mps 646 mmHg 24%
    10:00 +30°C° 0 mm 2 mps 646 mmHg 22%
    11:00 +31°C° 0 mm 2 mps 646 mmHg 21%
    12:00 +34°C° 0 mm 3 mps 646 mmHg 19%
    13:00 +34°C° 0 mm 3 mps 646 mmHg 19%
    14:00 +35°C° 0 mm 3 mps 646 mmHg 19%
    15:00 +35°C° 0 mm 3 mps 645 mmHg 19%
    16:00 +34°C° 0 mm 4 mps 645 mmHg 23%
    17:00 +32°C° 0 mm 4 mps 644 mmHg 28%
    18:00 +30°C° 0 mm 4 mps 644 mmHg 32%
    19:00 +28°C° 0 mm 4 mps 643 mmHg 34%
    20:00 +26°C° 0 mm 4 mps 643 mmHg 36%
    21:00 +23°C° 0 mm 4 mps 643 mmHg 38%
    22:00 +22°C° 0 mm 4 mps 643 mmHg 38%
    23:00 +22°C° 0 mm 4 mps 643 mmHg 37%

    22 August, Thursday

    Time Temperature Precipitation Wind Pressure Humidity
    00:00 +21°C° 0 mm 3 mps 643 mmHg 37%
    01:00 +21°C° 0 mm 3 mps 642 mmHg 36%
    02:00 +20°C° 0 mm 3 mps 642 mmHg 35%
    03:00 +20°C° 0 mm 2 mps 642 mmHg 35%
    04:00 +20°C° 0 mm 2 mps 642 mmHg 35%
    05:00 +19°C° 0 mm 2 mps 642 mmHg 35%
    06:00 +19°C° 0 mm 2 mps 642 mmHg 35%
    07:00 +23°C° 0 mm 2 mps 643 mmHg 31%
    08:00 +26°C° 0 mm 2 mps 643 mmHg 28%
    09:00 +28°C° 0 mm 2 mps 644 mmHg 24%
    10:00 +30°C° 0 mm 2 mps 644 mmHg 21%
    11:00 +31°C° 0 mm 3 mps 644 mmHg 19%
    12:00 +34°C° 0 mm 3 mps 644 mmHg 17%
    13:00 +34°C° 0 mm 4 mps 643 mmHg 17%
    14:00 +35°C° 0 mm 4 mps 643 mmHg 17%
    15:00 +35°C° 0 mm 4 mps 643 mmHg 18%
    16:00 +33°C° 0 mm 5 mps 642 mmHg 24%
    17:00 +30°C° 0 mm 5 mps 641 mmHg 30%
    18:00 +28°C° 0 mm 6 mps 641 mmHg 36%
    19:00 +26°C° 0 mm 6 mps 641 mmHg 37%
    20:00 +23°C° 0 mm 5 mps 641 mmHg 38%
    21:00 +21°C° 0 mm 5 mps 641 mmHg 39%
    22:00 +21°C° 0 mm 4 mps 641 mmHg 38%
    23:00 +20°C° 0 mm 4 mps 641 mmHg 38%

    23 August, Friday

    Time Temperature Precipitation Wind Pressure Humidity
    00:00 +19°C° 0 mm 3 mps 641 mmHg 37%
    01:00 +19°C° 0 mm 3 mps 641 mmHg 38%
    02:00 +18°C° 0 mm 2 mps 641 mmHg 38%
    03:00 +18°C° 0 mm 2 mps 641 mmHg 39%
    04:00 +18°C° 0 mm 2 mps 641 mmHg 39%
    05:00 +18°C° 0 mm 2 mps 641 mmHg 39%
    06:00 +18°C° 0 mm 2 mps 641 mmHg 39%
    07:00 +20°C° 0 mm 2 mps 642 mmHg 35%
    08:00 +24°C° 0 mm 2 mps 643 mmHg 30%
    09:00 +27°C° 0 mm 2 mps 643 mmHg 26%
    10:00 +28°C° 0 mm 2 mps 643 mmHg 24%
    11:00 +29°C° 0 mm 3 mps 644 mmHg 22%
    12:00 +31°C° 0 mm 3 mps 644 mmHg 20%
    13:00 +31°C° 0 mm 3 mps 644 mmHg 20%
    14:00 +31°C° 0 mm 3 mps 643 mmHg 20%
    15:00 +33°C° 0 mm 4 mps 643 mmHg 20%
    16:00 +30°C° 0 mm 4 mps 643 mmHg 25%
    17:00 +29°C° 0 mm 5 mps 642 mmHg 30%
    18:00 +27°C° 0 mm 5 mps 642 mmHg 35%
    19:00 +25°C° 0 mm 5 mps 642 mmHg 39%
    20:00 +23°C° 0 mm 5 mps 642 mmHg 42%
    21:00 +21°C° 0 mm 5 mps 642 mmHg 45%
    22:00 +20°C° 0 mm 4 mps 642 mmHg 46%
    23:00 +20°C° 0 mm 3 mps 642 mmHg 47%

    24 August, Saturday

    Time Temperature Precipitation Wind Pressure Humidity
    00:00 +19°C° 0 mm 3 mps 642 mmHg 47%
    01:00 +19°C° 0 mm 3 mps 642 mmHg 48%
    02:00 +18°C° 0 mm 2 mps 642 mmHg 48%
    03:00 +18°C° 0 mm 2 mps 642 mmHg 48%
    04:00 +18°C° 0 mm 2 mps 642 mmHg 48%
    05:00 +18°C° 0 mm 2 mps 642 mmHg 48%
    06:00 +19°C° 0 mm 1 mps 642 mmHg 48%
    07:00 +21°C° 0 mm 2 mps 643 mmHg 43%
    08:00 +24°C° 0 mm 2 mps 643 mmHg 37%
    09:00 +27°C° 0 mm 2 mps 644 mmHg 32%
    10:00 +28°C° 0 mm 2 mps 644 mmHg 29%
    11:00 +30°C° 0 mm 2 mps 644 mmHg 26%
    12:00 +31°C° 0 mm 3 mps 645 mmHg 23%
    13:00 +33°C° 0 mm 3 mps 644 mmHg 22%
    14:00 +33°C° 0 mm 3 mps 644 mmHg 21%
    15:00 +34°C° 0 mm 2 mps 644 mmHg 20%
    16:00 +31°C° 0 mm 3 mps 643 mmHg 26%
    17:00 +30°C° 0 mm 4 mps 643 mmHg 32%
    18:00 +28°C° 0 mm 4 mps 643 mmHg 38%
    19:00 +26°C° 0 mm 4 mps 643 mmHg 42%
    20:00 +25°C° 0 mm 4 mps 643 mmHg 45%
    21:00 +22°C° 0 mm 4 mps 643 mmHg 49%
    22:00 +21°C° 0 mm 4 mps 643 mmHg 50%
    23:00 +21°C° 0 mm 4 mps 643 mmHg 50%
    Show more